Total_Precipitation_Accumulation
0.03 0.05 0.10 0.16 0.22 0.26 0.35 0.42 0.26 0.05 0.03 0.03 0.00 0.00 0.00 0.00 0.00 0.00 0.00 0.01 0.03 0.01 0.00 0.00 0.00 0.00 0.01 0.02 0.02 0.01 0.01 0.01 0.00
0.04 0.05 0.08 0.14 0.31 0.29 0.26 0.29 0.25 0.11 0.04 0.05 0.02 0.00 0.00 0.00 0.00 0.00 0.00 0.01 0.01 0.00 0.01 0.01 0.00 0.00 0.01 0.01 0.02 0.02 0.01 0.01 0.00
0.04 0.13 0.19 0.16 0.27 0.48 0.37 0.31 0.25 0.15 0.04 0.05 0.02 0.00 0.00 0.00 0.00 0.00 0.00 0.01 0.01 0.01 0.02 0.01 0.00 0.00 0.01 0.02 0.02 0.01 0.00 0.00 0.00
0.10 0.16 0.17 0.10 0.21 0.41 0.60 0.44 0.32 0.13 0.04 0.02 0.01 0.00 0.00 0.00 0.00 0.00 0.00 0.01 0.01 0.03 0.02 0.01 0.00 0.00 0.01 0.02 0.01 0.01 0.00 0.00 0.00
0.21 0.16 0.12 0.18 0.26 0.36 0.49 0.38 0.27 0.19 0.06 0.02 0.00 0.00 0.01 0.00 0.00 0.00 0.00 0.01 0.02 0.04 0.02 0.00 0.00 0.01 0.01 0.01 0.01 0.00 0.00 0.00 0.00
0.11 0.13 0.16 0.17 0.31 0.42 0.39 0.33 0.28 0.21 0.13 0.04 0.02 0.01 0.01 0.01 0.00 0.00 0.00 0.02 0.02 0.04 0.01 0.01 0.01 0.01 0.01 0.01 0.00 0.01 0.01 0.01 0.01
0.00 0.01 0.13 0.28 0.39 0.57 0.77 0.68 0.29 0.19 0.17 0.08 0.07 0.04 0.05 0.02 0.00 0.00 0.01 0.07 0.03 0.03 0.00 0.01 0.01 0.01 0.01 0.01 0.01 0.01 0.01 0.01 0.01
0.00 0.00 0.01 0.32 1.23 1.14 1.37 1.12 0.34 0.20 0.17 0.19 0.09 0.07 0.08 0.06 0.01 0.00 0.03 0.13 0.09 0.04 0.01 0.01 0.01 0.01 0.01 0.02 0.01 0.01 0.02 0.02 0.01
0.00 0.00 0.01 0.11 0.68 1.34 1.26 0.96 0.59 0.35 0.22 0.21 0.24 0.19 0.11 0.11 0.03 0.03 0.08 0.22 0.17 0.11 0.06 0.03 0.02 0.03 0.05 0.06 0.04 0.03 0.03 0.01 0.01
0.00 0.00 0.00 0.00 0.11 0.46 1.10 1.17 1.05 0.73 0.43 0.35 0.31 0.30 0.21 0.20 0.18 0.05 0.15 0.31 0.23 0.20 0.12 0.08 0.08 0.09 0.10 0.07 0.04 0.05 0.04 0.03 0.07
0.00 0.00 0.00 0.00 0.02 0.11 0.64 1.07 1.06 0.91 0.70 0.63 0.55 0.37 0.34 0.26 0.30 0.16 0.25 0.53 0.44 0.29 0.25 0.19 0.17 0.17 0.16 0.12 0.10 0.05 0.06 0.08 0.08
0.00 0.00 0.00 0.00 0.00 0.01 0.05 0.16 0.30 0.43 0.57 0.70 0.68 0.46 0.35 0.34 0.32 0.31 0.37 0.60 0.74 0.54 0.38 0.36 0.27 0.23 0.21 0.16 0.09 0.07 0.07 0.06 0.05
0.01 0.01 0.01 0.02 0.00 0.00 0.02 0.03 0.03 0.06 0.13 0.38 0.54 0.48 0.35 0.29 0.35 0.33 0.44 0.65 0.69 0.88 0.52 0.50 0.43 0.28 0.21 0.15 0.09 0.07 0.05 0.02 0.01
0.04 0.02 0.02 0.02 0.00 0.00 0.01 0.05 0.08 0.03 0.02 0.08 0.25 0.34 0.44 0.29 0.37 0.40 0.49 0.63 1.00 1.08 0.84 0.61 0.61 0.47 0.28 0.15 0.08 0.04 0.02 0.00 0.00
0.08 0.03 0.02 0.02 0.00 0.00 0.00 0.01 0.08 0.11 0.04 0.04 0.13 0.15 0.17 0.26 0.50 0.45 0.59 0.39 0.62 1.14 0.82 0.82 0.60 0.58 0.45 0.21 0.07 0.03 0.01 0.01 0.01
0.16 0.14 0.04 0.01 0.00 0.00 0.00 0.00 0.03 0.09 0.08 0.10 0.08 0.09 0.06 0.08 0.34 0.57 0.45 0.37 0.30 0.79 0.64 0.90 0.57 0.41 0.40 0.22 0.06 0.02 0.01 0.01 0.00
0.38 0.24 0.17 0.04 0.02 0.01 0.01 0.01 0.01 0.02 0.08 0.08 0.07 0.04 0.05 0.05 0.12 0.35 0.37 0.27 0.28 0.28 0.44 0.38 0.35 0.18 0.16 0.16 0.03 0.01 0.00 0.00 0.00
0.50 0.70 0.58 0.37 0.12 0.04 0.03 0.02 0.02 0.02 0.03 0.06 0.04 0.02 0.03 0.06 0.08 0.12 0.31 0.33 0.44 0.37 0.25 0.29 0.24 0.16 0.09 0.10 0.06 0.01 0.00 0.00 0.00
0.47 0.67 0.94 0.89 0.75 0.34 0.12 0.10 0.08 0.05 0.05 0.03 0.07 0.01 0.00 0.03 0.05 0.09 0.15 0.30 0.42 0.55 0.45 0.33 0.24 0.16 0.10 0.06 0.04 0.01 0.00 0.00 0.00
0.29 0.41 0.69 1.12 1.09 1.10 0.73 0.34 0.23 0.15 0.09 0.05 0.04 0.08 0.02 0.00 0.02 0.04 0.08 0.15 0.27 0.27 0.40 0.46 0.31 0.16 0.07 0.05 0.03 0.01 0.01 0.00 0.00